Location: Banksville Park
(38.5557°N, 75.1182°W)
Time: 21:19:54
(UTC+00:00)

USA 306 - Pass Details

Date: 19 September 2020
Orbit: 568 x 579 km, 54.0° (Epoch: 19 October)

Event Time Altitude Azimuth Distance (km) Brightness Sun altitude
Exits shadow 08:51:16 24° 334° (NNW) 1,213 4.5 -22.7°
Drops below altitude 10° 08:54:37 10° 26° (NNE) 1,869 6.1 -22.1°
Sets 08:57:13 0° 41° (NE) 2,768 7.4 -21.6°
